{"data":{"norad_id":68910,"intl_designator":"2026-097R","name":"STARLINK-37493","alt_names":[],"object_type":"PAYLOAD","status":"ACTIVE","operator":null,"country":"US","launch_date":"2026-04-30","launch_site_code":"AFWTR","launch_vehicle":null,"mission":null,"orbit_class":"UNKNOWN","rcs_meters":null,"size_class":null,"mass_kg":null,"dimensions":null,"purposes":["comms"],"wikipedia_slug":null,"has_3d_model":false,"image_url":null,"decayed_at":null,"tle_current":{"epoch":"2026-05-25T02:28:32.674944Z","epoch_age_seconds":62278,"freshness":"FRESH","line1":"1 68910U 26097R   26145.10315596  .00027830  00000+0  51116-3 0  9992","line2":"2 68910  97.2842 340.8751 0002977  89.1331 271.0261 15.49207617  3943","mean_motion":15.49207617,"eccentricity":0.0002977,"inclination_deg":97.2842,"raan_deg":340.8751,"arg_perigee_deg":89.1331,"mean_anomaly_deg":271.0261,"bstar":0.00051116,"rev_number":394,"period_min":92.950743605852,"perigee_km":417.01929232814,"apogee_km":421.06633318866,"semimajor_km":6797.1798127584,"source":"CELESTRAK","updated_at":"2026-05-25T13:38:22.069510Z"}}}